Flag for United Arab Emirates Weather past 2 weeks in Sharjah, Sharjah, United Arab Emirates

Now
84 °F

Clear.


Feels Like: 87 °F
Forecast: 84 / 94 °F
Wind: 3 mph from East

Location: Sharjah International Airport

Current Time: Oct 21, 2014 at 11:03:44 PM

Latest Report: Oct 21, 2014 at 10:00 PM


Visibility: 10 mi

Pressure: 29.95 "Hg

Humidity: 58%

Dew point: 68 °F

Location of SharjahLocation

Historic Weather in Sharjah — Graph

°F

Sharjah temperature yesterday

Maximum temperature yesterday: 95 °F (at 12:00 PM)
Minimum temperature yesterday: 77 °F (at 5:00 AM)
Average temperature yesterday: 86 °F

Past Weeks' High & Low Weather Summary

 TemperatureHumidityPressure
High104 °F (Oct 14, 2:00 PM)89% (Oct 8, 5:00 AM)30.01 "Hg (Oct 8, 5:00 AM)
Low73 °F (Oct 17, 7:00 AM)9% (Oct 14, 2:00 PM)29.74 "Hg (Oct 8, 2:00 AM)
Average89 °F51%29.86 "Hg
* Reported Oct 6 10:00 PM — Oct 21 10:00 PM, Sharjah, Weather by CustomWeather, © 2014

Note: Actual official high and low records may vary slightly from our data, if they occured in-between our weather recording intervals... More about our weather records

Advertising

Sharjah weather history for previous 24 hours

 ConditionsComfort  
Time TempWeatherWind HumidityBarometerVisibility
10:00 PM
Oct 21
84 °FClear.3 mph58%29.95 "Hg10 mi
9:00 PM84 °FClear.1 mph62%29.95 "Hg10 mi
8:00 PM86 °FClear.1 mph59%29.95 "Hg10 mi
7:00 PM88 °FClear.2 mph55%29.92 "Hg10 mi
6:00 PM91 °FPassing clouds.7 mph46%29.92 "HgN/A
5:00 PM93 °FPassing clouds.10 mph44%29.89 "HgN/A
4:00 PM93 °FPassing clouds.13 mph47%29.89 "HgN/A
3:00 PM97 °FPassing clouds.8 mph37%29.89 "HgN/A
2:00 PM99 °FPassing clouds.9 mph29%29.89 "HgN/A
1:00 PM100 °FSunny.2 mph17%29.92 "Hg10 mi
12:00 PM99 °FSunny.2 mph18%29.95 "Hg10 mi
11:00 AM95 °FSunny.2 mph25%29.98 "Hg10 mi
9:00 AM84 °FPassing clouds.3 mph55%29.98 "HgN/A
8:00 AM79 °FSunny.3 mph65%29.98 "Hg10 mi
7:00 AM73 °FSunny.3 mph78%29.95 "Hg10 mi
6:00 AM73 °FClear.3 mph78%29.92 "Hg10 mi
5:00 AM75 °FClear.3 mph74%29.89 "Hg10 mi
4:00 AM75 °FClear.3 mph74%29.89 "Hg10 mi
3:00 AM77 °FClear.5 mph74%29.92 "Hg10 mi
2:00 AM79 °FClear.3 mph70%29.92 "Hg10 mi
1:00 AM79 °FClear.3 mph70%29.92 "Hg10 mi
12:00 AM81 °FPassing clouds.3 mph66%29.92 "HgN/A
11:00 PM
Oct 20
82 °FClear.3 mph66%29.92 "Hg10 mi
Weather by CustomWeather, © 2014

See weather overviewHow to use our weather pages